Regional Weather Roundup
Issued by NWS Upton, NY

Current Version | Previous Version | Text Only | Print | Product List | Glossary Off
Versions: 1 2 3 4 5 6 7 8 9 10 11 12 13 14 15 16 17 18 19 20 21 22 23 24 25 26 27 28 29 30 31 32 33 34 35 36 37 38 39 40 41 42 43 44 45 46 47 48 49 50

000
ASUS41 KOKX 202305
RWROKX

REGIONAL WEATHER ROUNDUP
NATIONAL WEATHER SERVICE NEW YORK NY
700 PM EDT MON OCT 20 2014

NOTE: "FAIR" INDICATES FEW OR NO CLOUDS BELOW 12,000 FEET WITH NO
SIGNIFICANT WEATHER AND/OR OBSTRUCTIONS TO VISIBILITY.

NYZ071-072-176-178-NJZ106-104-210000-
NEW YORK CITY METRO AREA


CITY           SKY/WX    TMP DP  RH WIND       PRES   REMARKS
CENTRAL PARK   CLEAR     57  37  47 MISG      30.00S
LAGUARDIA APRT MOCLDY    59  37  44 SW8       29.97S
KENNEDY INTL   MOCLDY    58  40  51 S10       29.99S
NEWARK/LIBERTY MOCLDY    56  37  49 S8        29.97S
BRNX BOT. GARD   N/A     57  36  44 SW6       29.99S
TETERBORO      CLEAR     56  38  50 S5        29.96F
$$

NYZ177-179-078>081-210000-
LONG ISLAND NEW YORK

CITY           SKY/WX    TMP DP  RH WIND       PRES   REMARKS
FARMINGDALE    CLEAR     57  41  55 SW9       29.99S
ISLIP          MOCLDY    56  42  59 SW7       29.98S
SHIRLEY        PTCLDY    56  42  59 SW7       30.00S
WESTHAMPTON    PTCLDY    57  42  57 SW7       30.01S
MONTAUK POINT    N/A     56  44  64 SW8       30.02S
$$

NYZ052-065-067-210000-
HUDSON VALLEY

CITY           SKY/WX    TMP DP  RH WIND       PRES   REMARKS
WHITE PLAINS   CLEAR     48  40  73 CALM      29.97S
NEWBURGH       NOT AVBL
MONTGOMERY     PTCLDY    48  38  68 CALM      29.95S
POUGHKEEPSIE   PTCLDY    54  35  48 CALM      29.97R
ALBANY         CLOUDY    52  35  52 S6        29.94S
$$

NJZ001-105-106-008-010-013-015-019>022-104-210000-
NEW JERSEY

CITY           SKY/WX    TMP DP  RH WIND       PRES   REMARKS
NEWARK/LIBERTY MOCLDY    56  37  49 S8        29.97S
TETERBORO      CLEAR     56  38  50 S5        29.96F
CALDWELL       CLEAR     55  38  52 CALM      29.97S
MORRISTOWN     CLEAR     54  39  58 SW3       29.98R
SOMERVILLE     PTCLDY    51  38  60 CALM      29.96R
SUSSEX         PTCLDY    53  40  61 CALM      29.96R
ANDOVER          N/A     53  40  61 CALM      29.96S
TRENTON        PTCLDY    53  38  56 CALM      29.97S
MILLVILLE      PTCLDY    56  45  66 SW3       29.99R
ATLANTIC CITY  MOCLDY    59  46  62 S8        29.99S
WRIGHTSTOWN    MOCLDY    51  42  71 S5        29.96S
TOMS RIVER     MOCLDY    54  43  66 CALM      29.99S
BELMAR         MOCLDY    55  37  50 CALM      29.98S
$$

PAZ047>061-062-071-210000-
EASTERN PENNSYLVANIA

CITY           SKY/WX    TMP DP  RH WIND       PRES   REMARKS
PHILADELPHIA   MOCLDY    58  44  60 S5        29.98R
ALLENTOWN      CLOUDY    57  39  51 S6        29.96S
SCRANTON       CLOUDY    55  38  52 VRB5      29.92S
$$

CTZ002-004>006-009-010-012-RIZ004-006-007-MAZ004-011-015-210000-
SOUTHERN NEW ENGLAND
 IN CT

CITY           SKY/WX    TMP DP  RH WIND       PRES   REMARKS
BRADLEY INTL   CLOUDY    52  37  56 SE5       29.97S
HARTFORD       MOCLDY    50  41  71 S3        29.98S
DANBURY        CLEAR     46  30  53 CALM      29.99R
WTRBRY/OXFORD  PTCLDY    48  34  57 S3        29.98R
BRIDGEPORT     CLEAR     58  42  55 SW14      29.99S
MERIDEN        MOCLDY    52  38  58 S5        29.99R
NEW HAVEN      MOCLDY    60  41  49 SW8G18    29.99S
CHESTER        FAIR      52  43  71 SW5       30.00R
GROTON         MOCLDY    55  43  63 SW13      30.00R
WILLIMANTIC    MOCLDY    49  39  68 CALM      30.00R

 IN RI

CITY           SKY/WX    TMP DP  RH WIND       PRES   REMARKS
PROVIDENCE     MOCLDY    50  39  66 SW5       30.01R
BLOCK ISLAND   MOCLDY    55  41  58 SW16      30.01S
WESTERLY       MOCLDY    56  43  61 SW9       30.01S

 IN MA

CITY           SKY/WX    TMP DP  RH WIND       PRES   REMARKS
BOSTON         MOCLDY    54  33  45 SW9       29.99R
WORCESTER      MOCLDY    46  35  65 SW7       29.97S
WESTFIELD      CLOUDY    49  37  63 S3        29.97S
PROVINCETOWN   MOCLDY    54  37  54 SW10      30.01R
NANTUCKET      PTCLDY    53  42  66 SW14      30.03R
$$

ANZ330-335-338-340-345-350-353-355-210000-
COASTAL MARINE OBSERVATIONS


STATION/POSITION TIME  SKY/WX   TEMP    WIND        PRES    VSBY  WAVE
                                AIR SEA DIR/SP/G                  HT/PER
                 (UTC)          (F)     (DEG/KT/KT) (MB)    (MI)  (FT/S)
NY HARB ENTRANCE NOT AVBL
4S FIRE IS       2300               63                N/A           4/ 5
20S FIRE ISLAND  2300            61 63  220/ 17/ 21 1015.4          4/ 5
23SW MTP         2300                                 N/A           3/ 5
HUDSON CANYON    2300            61 66  230/ 16/ 19 1016.5          3/ 4
EXECUTION ROCKS  2300            60 64  210/ 12/ 16   N/A
WESTERN LI SOUND 2300            59     190/ 10/ 12   N/A           0
CENTRAL LI SOUND 2200            58 63  220/ 16/ 19   N/A           2/ 3
EASTERN LI SOUND 2200            58 64  230/ 14/ 19   N/A
ROBBINS REEF     2300            59     220/  9/ 12 1013.9
$$


>>>>>>>>>>>>>>>>>>>>>>>>>>>> KEY <<<<<<<<<<<<<<<<<<<<<<<<<<<
>                                                          <
>     SKY/WX - SKY CONDITION/PRESENT WEATHER               <
>     TMP    - TEMPERATURE IN FAHRENHEIT                   <
>     DP     - DEWPOINT IN FAHRENHEIT                      <
>     RH     - RELATIVE HUMIDITY IN PERCENT                <
>     WIND   - DIRECTION AND SPEED IN MPH                  <
>     PRES   - MEAN SEA LEVEL PRESSURE IN INCHES OF HG     <
>     WCI    - WIND CHILL INDEX                            <
>     VSB    - VISIBILITY IN MILES                         <
>     HX     - HEAT INDEX                                  <
>     TC     - TEMPERATURE IN CELSIUS                      <
>     VRB    - VARIABLE WIND DIRECTION                     <
>                                                          <
>>>>>>>>>>>>>>>>>>>>>>>>>>>> KEY <<<<<<<<<<<<<<<<<<<<<<<<<<<





USA.gov is the U.S. government's official web portal to all federal, state and local government web resources and services.